When you browse on this site, cookies collect data to enhance your experience and personalize the content and advertising you see.
Visit our Privacy Policy to learn more. By continuing to use the site, you agree to this use of cookies and data.
  • In Netherlands
  • List of Countries
  • For 7 days
  • Water Temperature
  • Weather Map
  • Weather Widgets
  • user-avatar
    Login

    Hourly Weather Mirzita

    Today, 17 February, Monday

    Time Temperature Precipitation Wind Pressure Humidity
    00:00 -8°C° 0 mm 1 mps 629 mmHg 83%
    01:00 -9°C° 0 mm 1 mps 629 mmHg 79%
    02:00 -9°C° 0 mm 1 mps 629 mmHg 76%
    03:00 -9°C° 0 mm 1 mps 629 mmHg 72%
    04:00 -9°C° 0 mm 1 mps 629 mmHg 70%
    05:00 -9°C° 0 mm 1 mps 629 mmHg 68%
    06:00 -9°C° 0 mm 1 mps 629 mmHg 65%
    07:00 -8°C° 0 mm 1 mps 630 mmHg 70%
    08:00 -7°C° 0 mm 1 mps 631 mmHg 74%
    09:00 -7°C° 0 mm 2 mps 631 mmHg 79%
    10:00 -6°C° 0 mm 2 mps 631 mmHg 80%
    11:00 -5°C° 0 mm 2 mps 632 mmHg 82%
    12:00 -4°C° 0 mm 2 mps 632 mmHg 83%
    13:00 -4°C° 0 mm 2 mps 632 mmHg 85%
    14:00 -4°C° 0 mm 2 mps 631 mmHg 88%
    15:00 -4°C° 0 mm 2 mps 631 mmHg 90%
    16:00 -5°C° 0 mm 2 mps 631 mmHg 91%
    17:00 -6°C° 0 mm 2 mps 631 mmHg 92%
    18:00 -7°C° 0 mm 2 mps 630 mmHg 93%
    19:00 -7°C° 0 mm 2 mps 630 mmHg 90%
    20:00 -7°C° 0 mm 2 mps 631 mmHg 86%
    21:00 -8°C° 0 mm 2 mps 631 mmHg 82%
    22:00 -8°C° 0 mm 2 mps 630 mmHg 79%
    23:00 -8°C° 0 mm 2 mps 630 mmHg 76%

    Tomorrow, 18 February, Tuesday

    Time Temperature Precipitation Wind Pressure Humidity
    00:00 -8°C° 0 mm 2 mps 630 mmHg 72%
    01:00 -7°C° 0 mm 2 mps 630 mmHg 68%
    02:00 -6°C° 0 mm 1 mps 630 mmHg 63%
    03:00 -4°C° 0 mm 1 mps 630 mmHg 59%
    04:00 -4°C° 0 mm 1 mps 630 mmHg 57%
    05:00 -6°C° 0 mm 2 mps 630 mmHg 55%
    06:00 -6°C° 0 mm 2 mps 629 mmHg 54%
    07:00 -4°C° 0 mm 2 mps 630 mmHg 58%
    08:00 0°C° 0 mm 1 mps 631 mmHg 62%
    09:00 +1°C° 0 mm 1 mps 631 mmHg 66%
    10:00 +2°C° 0 mm 1 mps 631 mmHg 74%
    11:00 +3°C° 0 mm 1 mps 631 mmHg 81%
    12:00 +3°C° 0 mm 1 mps 631 mmHg 88%
    13:00 +3°C° 0 mm 1 mps 630 mmHg 87%
    14:00 +4°C° 0 mm 1 mps 630 mmHg 86%
    15:00 +4°C° 0 mm 1 mps 630 mmHg 85%
    16:00 +3°C° 0 mm 1 mps 629 mmHg 77%
    17:00 +2°C° 0 mm 1 mps 629 mmHg 69%
    18:00 -1°C° 0 mm 2 mps 628 mmHg 61%
    19:00 -1°C° 0 mm 2 mps 628 mmHg 56%
    20:00 -1°C° 0 mm 3 mps 628 mmHg 52%
    21:00 0°C° 0 mm 3 mps 628 mmHg 47%
    22:00 -1°C° 0 mm 3 mps 627 mmHg 44%
    23:00 -1°C° 0 mm 3 mps 627 mmHg 42%

    Day after tomorrow, 19 February, Wednesday

    Time Temperature Precipitation Wind Pressure Humidity
    00:00 -1°C° 0 mm 3 mps 626 mmHg 39%
    01:00 -1°C° 0 mm 3 mps 626 mmHg 38%
    02:00 -1°C° 0 mm 3 mps 625 mmHg 37%
    03:00 -1°C° 0 mm 3 mps 625 mmHg 36%
    04:00 -1°C° 0 mm 3 mps 625 mmHg 35%
    05:00 -1°C° 0 mm 3 mps 625 mmHg 34%
    06:00 -2°C° 0 mm 2 mps 624 mmHg 33%
    07:00 +1°C° 0 mm 2 mps 625 mmHg 39%
    08:00 +3°C° 0 mm 1 mps 625 mmHg 45%
    09:00 +4°C° 0 mm 1 mps 626 mmHg 52%
    10:00 +4°C° 0 mm 1 mps 626 mmHg 61%
    11:00 +5°C° 0 mm 1 mps 626 mmHg 71%
    12:00 +4°C° 0 mm 0 mps 626 mmHg 81%
    13:00 +4°C° 0 mm 0 mps 625 mmHg 80%
    14:00 +4°C° 0 mm 0 mps 625 mmHg 79%
    15:00 +3°C° 0 mm 0 mps 625 mmHg 78%
    16:00 +2°C° 0 mm 0 mps 624 mmHg 74%
    17:00 +2°C° 0 mm 1 mps 624 mmHg 70%
    18:00 +1°C° 0 mm 1 mps 623 mmHg 66%
    19:00 0°C° 0 mm 1 mps 623 mmHg 63%
    20:00 0°C° 0 mm 1 mps 623 mmHg 60%
    21:00 0°C° 0 mm 1 mps 623 mmHg 57%
    22:00 0°C° 0 mm 1 mps 623 mmHg 56%
    23:00 0°C° 0 mm 1 mps 622 mmHg 55%

    20 February, Thursday

    Time Temperature Precipitation Wind Pressure Humidity
    00:00 -1°C° 0 mm 1 mps 622 mmHg 53%
    01:00 -1°C° 0 mm 1 mps 622 mmHg 54%
    02:00 -1°C° 0 mm 1 mps 622 mmHg 54%
    03:00 -1°C° 0 mm 1 mps 622 mmHg 54%
    04:00 -1°C° 0 mm 1 mps 621 mmHg 53%
    05:00 -1°C° 0 mm 1 mps 621 mmHg 53%
    06:00 -1°C° 0 mm 1 mps 621 mmHg 52%
    07:00 0°C° 0 mm 1 mps 621 mmHg 56%
    08:00 0°C° 0 mm 0 mps 622 mmHg 59%
    09:00 +1°C° 0 mm 0 mps 622 mmHg 63%
    10:00 +1°C° 0 mm 0 mps 622 mmHg 66%
    11:00 +2°C° 0 mm 1 mps 622 mmHg 70%
    12:00 +2°C° 0 mm 1 mps 622 mmHg 74%
    13:00 +2°C° 0 mm 1 mps 622 mmHg 76%
    14:00 +2°C° 0 mm 1 mps 621 mmHg 77%
    15:00 +2°C° 0 mm 1 mps 621 mmHg 79%
    16:00 +1°C° 0 mm 1 mps 621 mmHg 83%
    17:00 -1°C° 0 mm 0 mps 620 mmHg 86%
    18:00 -2°C° 0 mm 0 mps 620 mmHg 89%
    19:00 -2°C° 0 mm 0 mps 620 mmHg 88%
    20:00 -2°C° 0 mm 0 mps 620 mmHg 86%
    21:00 -2°C° 0 mm 0 mps 620 mmHg 85%
    22:00 -2°C° 0 mm 0 mps 620 mmHg 84%
    23:00 -3°C° 0 mm 0 mps 620 mmHg 82%

    21 February, Friday

    Time Temperature Precipitation Wind Pressure Humidity
    00:00 -2°C° 0 mm 1 mps 620 mmHg 81%
    01:00 -2°C° 0 mm 1 mps 620 mmHg 80%
    02:00 -2°C° 0 mm 1 mps 620 mmHg 79%
    03:00 -2°C° 0 mm 1 mps 619 mmHg 78%
    04:00 -2°C° 0 mm 1 mps 620 mmHg 77%
    05:00 -2°C° 0 mm 1 mps 620 mmHg 77%
    06:00 -2°C° 0 mm 1 mps 620 mmHg 77%
    07:00 -1°C° 0 mm 1 mps 620 mmHg 77%
    08:00 -1°C° 0 mm 0 mps 621 mmHg 76%
    09:00 0°C° 0 mm 0 mps 622 mmHg 76%
    16:00 +1°C° 0 mm 1 mps 622 mmHg 86%
    17:00 0°C° 0 mm 1 mps 622 mmHg 86%
    18:00 -1°C° 0 mm 1 mps 622 mmHg 87%
    19:00 -1°C° 0 mm 1 mps 622 mmHg 84%
    20:00 -1°C° 0 mm 1 mps 622 mmHg 81%
    21:00 -1°C° 0 mm 1 mps 623 mmHg 78%
    22:00 -2°C° 0 mm 1 mps 623 mmHg 76%
    23:00 -2°C° 0 mm 1 mps 623 mmHg 75%

    22 February, Saturday

    Time Temperature Precipitation Wind Pressure Humidity
    00:00 -2°C° 0 mm 1 mps 623 mmHg 74%
    01:00 -2°C° 0 mm 1 mps 623 mmHg 73%
    02:00 -2°C° 0 mm 1 mps 623 mmHg 72%
    03:00 -2°C° 0 mm 1 mps 623 mmHg 71%
    04:00 -2°C° 0 mm 1 mps 623 mmHg 70%
    05:00 -2°C° 0 mm 1 mps 623 mmHg 68%
    06:00 -2°C° 0 mm 1 mps 623 mmHg 67%
    07:00 -1°C° 0 mm 1 mps 624 mmHg 67%
    08:00 0°C° 0 mm 1 mps 625 mmHg 66%
    09:00 +1°C° 0 mm 1 mps 625 mmHg 66%
    10:00 +2°C° 0 mm 1 mps 625 mmHg 68%
    11:00 +2°C° 0 mm 1 mps 625 mmHg 70%
    12:00 +3°C° 0 mm 1 mps 626 mmHg 72%
    13:00 +3°C° 0 mm 1 mps 625 mmHg 75%
    14:00 +3°C° 0 mm 1 mps 625 mmHg 79%
    15:00 +2°C° 0 mm 1 mps 625 mmHg 82%
    16:00 +1°C° 0 mm 1 mps 624 mmHg 84%
    17:00 +1°C° 0 mm 1 mps 624 mmHg 87%
    18:00 -1°C° 0 mm 0 mps 624 mmHg 90%
    19:00 -2°C° 0 mm 0 mps 624 mmHg 90%
    20:00 -2°C° 0 mm 0 mps 624 mmHg 90%
    21:00 -2°C° 0 mm 0 mps 625 mmHg 90%
    22:00 -2°C° 0 mm 0 mps 624 mmHg 90%
    23:00 -2°C° 0 mm 0 mps 624 mmHg 91%
    Show more